Time,TemperatureF,DewpointF,PressureIn,WindDirection,WindDirectionDegrees,WindSpeedMPH,WindSpeedGustMPH,Humidity,HourlyPrecipIn,Conditions,Clouds,dailyrainin,SoftwareType,DateUTC
2013-03-05 00:02:00,49.0,45.0,30.14,NNE,24,0.0,0.0,87,0.00,,,0.00,,2013-03-05 05:02:00,
2013-03-05 00:12:00,49.0,45.0,30.14,NNE,24,0.0,0.0,87,0.00,,,0.00,,2013-03-05 05:12:00,
2013-03-05 00:22:00,49.0,45.0,30.14,NNE,24,0.0,0.0,87,0.00,,,0.00,,2013-03-05 05:22:00,
2013-03-05 00:32:00,48.0,44.0,30.14,NNE,24,0.0,0.0,87,0.00,,,0.00,,2013-03-05 05:32:00,
2013-03-05 00:42:00,48.0,44.0,30.14,NNE,24,0.0,0.0,87,0.00,,,0.00,,2013-03-05 05:42:00,
2013-03-05 00:52:00,48.0,44.0,30.13,NNE,24,0.0,0.0,87,0.00,,,0.00,,2013-03-05 05:52:00,
2013-03-05 01:01:00,48.0,44.0,30.13,NNE,24,0.0,0.0,86,0.00,,,0.00,,2013-03-05 06:01:00,
2013-03-05 01:11:00,48.0,44.0,30.13,NNE,24,0.0,0.0,86,0.00,,,0.00,,2013-03-05 06:11:00,
2013-03-05 01:22:00,48.0,44.0,30.12,ESE,113,0.0,2.0,86,0.00,,,0.00,,2013-03-05 06:22:00,
2013-03-05 01:32:00,48.0,43.0,30.11,ESE,113,0.0,2.0,84,0.00,,,0.00,,2013-03-05 06:32:00,
2013-03-05 01:42:00,48.0,43.0,30.11,ESE,113,0.0,2.0,84,0.00,,,0.00,,2013-03-05 06:42:00,
2013-03-05 01:52:00,47.0,42.0,30.12,ESE,113,0.0,0.0,84,0.00,,,0.00,,2013-03-05 06:52:00,
2013-03-05 02:01:00,47.0,42.0,30.12,ESE,113,0.0,0.0,84,0.00,,,0.00,,2013-03-05 07:01:00,
2013-03-05 02:11:00,47.0,42.0,30.12,ESE,113,0.0,0.0,84,0.00,,,0.00,,2013-03-05 07:11:00,
2013-03-05 02:22:00,47.0,43.0,30.12,ESE,113,0.0,0.0,86,0.00,,,0.00,,2013-03-05 07:22:00,
2013-03-05 02:31:00,47.0,43.0,30.11,ESE,113,0.0,0.0,85,0.00,,,0.00,,2013-03-05 07:31:00,
2013-03-05 02:42:00,47.0,43.0,30.11,ESE,113,0.0,0.0,85,0.00,,,0.00,,2013-03-05 07:42:00,
2013-03-05 02:52:00,47.0,43.0,30.11,ESE,113,0.0,0.0,85,0.00,,,0.00,,2013-03-05 07:52:00,
2013-03-05 03:02:00,46.0,42.0,30.12,ESE,113,0.0,0.0,85,0.00,,,0.00,,2013-03-05 08:02:00,
2013-03-05 03:11:00,46.0,42.0,30.12,ESE,113,0.0,0.0,85,0.00,,,0.00,,2013-03-05 08:11:00,
2013-03-05 03:21:00,46.0,42.0,30.11,ESE,113,0.0,0.0,87,0.00,,,0.00,,2013-03-05 08:21:00,
2013-03-05 03:31:00,46.0,42.0,30.11,ESE,113,0.0,0.0,87,0.00,,,0.00,,2013-03-05 08:31:00,
2013-03-05 03:41:00,46.0,42.0,30.11,ESE,113,0.0,0.0,87,0.00,,,0.00,,2013-03-05 08:41:00,
2013-03-05 03:52:00,45.0,41.0,30.10,ESE,113,0.0,0.0,86,0.00,,,0.00,,2013-03-05 08:52:00,
2013-03-05 04:01:00,45.0,41.0,30.11,ESE,113,0.0,0.0,86,0.00,,,0.00,,2013-03-05 09:01:00,
2013-03-05 04:11:00,45.0,41.0,30.11,ESE,113,0.0,0.0,86,0.00,,,0.00,,2013-03-05 09:11:00,
2013-03-05 04:21:00,45.0,41.0,30.10,ESE,113,0.0,0.0,86,0.00,,,0.00,,2013-03-05 09:21:00,
2013-03-05 04:32:00,45.0,42.0,30.11,ESE,113,0.0,2.0,88,0.00,,,0.00,,2013-03-05 09:32:00,
2013-03-05 04:42:00,45.0,42.0,30.11,ESE,113,0.0,2.0,88,0.00,,,0.00,,2013-03-05 09:42:00,
2013-03-05 04:52:00,45.0,42.0,30.11,ESE,113,0.0,2.0,88,0.00,,,0.00,,2013-03-05 09:52:00,
2013-03-05 05:01:00,45.0,42.0,30.11,ESE,105,0.0,3.0,89,0.00,,,0.00,,2013-03-05 10:01:00,
2013-03-05 05:11:00,45.0,42.0,30.11,ESE,105,0.0,3.0,89,0.00,,,0.00,,2013-03-05 10:11:00,
2013-03-05 05:22:00,45.0,42.0,30.11,ESE,105,0.0,0.0,89,0.00,,,0.00,,2013-03-05 10:22:00,
2013-03-05 05:32:00,45.0,42.0,30.12,ESE,105,0.0,0.0,89,0.00,,,0.00,,2013-03-05 10:32:00,
2013-03-05 05:42:00,45.0,42.0,30.12,ESE,105,0.0,0.0,89,0.00,,,0.00,,2013-03-05 10:42:00,
2013-03-05 05:52:00,45.0,42.0,30.11,SE,128,0.0,3.0,90,0.00,,,0.00,,2013-03-05 10:52:00,
2013-03-05 06:01:00,45.0,42.0,30.12,SE,142,1.0,3.0,90,0.00,,,0.00,,2013-03-05 11:01:00,
2013-03-05 06:11:00,45.0,42.0,30.12,SE,142,1.0,3.0,90,0.00,,,0.00,,2013-03-05 11:11:00,
2013-03-05 06:22:00,45.0,42.0,30.12,SE,139,1.0,3.0,90,0.00,,,0.00,,2013-03-05 11:22:00,
2013-03-05 06:32:00,45.0,42.0,30.13,SE,144,1.0,3.0,90,0.00,,,0.00,,2013-03-05 11:32:00,
2013-03-05 06:42:00,45.0,42.0,30.13,SE,144,1.0,3.0,90,0.00,,,0.00,,2013-03-05 11:42:00,
2013-03-05 06:52:00,45.0,42.0,30.13,SE,141,0.0,2.0,89,0.00,,,0.00,,2013-03-05 11:52:00,
2013-03-05 07:02:00,45.0,42.0,30.14,SE,143,0.0,2.0,88,0.00,,,0.00,,2013-03-05 12:02:00,
2013-03-05 07:12:00,45.0,42.0,30.14,SE,143,0.0,2.0,88,0.00,,,0.00,,2013-03-05 12:12:00,
2013-03-05 07:22:00,45.0,42.0,30.13,SE,137,1.0,4.0,89,0.00,,,0.00,,2013-03-05 12:22:00,
2013-03-05 07:32:00,45.0,42.0,30.14,SE,128,1.0,4.0,88,0.00,,,0.00,,2013-03-05 12:32:00,
2013-03-05 07:42:00,45.0,42.0,30.14,SE,128,1.0,4.0,88,0.00,,,0.00,,2013-03-05 12:42:00,
2013-03-05 07:53:00,46.0,42.0,30.15,SE,133,1.0,2.0,87,0.00,,,0.00,,2013-03-05 12:53:00,
2013-03-05 08:02:00,47.0,43.0,30.15,ESE,119,2.0,3.0,86,0.00,,,0.00,,2013-03-05 13:02:00,
2013-03-05 08:12:00,47.0,43.0,30.15,ESE,119,2.0,3.0,86,0.00,,,0.00,,2013-03-05 13:12:00,
2013-03-05 08:22:00,50.0,45.0,30.14,SE,131,0.0,3.0,82,0.00,,,0.00,,2013-03-05 13:22:00,
2013-03-05 08:32:00,52.0,45.0,30.14,SSE,148,2.0,4.0,77,0.00,,,0.00,,2013-03-05 13:32:00,
2013-03-05 08:42:00,52.0,45.0,30.14,SSE,148,2.0,4.0,77,0.00,,,0.00,,2013-03-05 13:42:00,
2013-03-05 08:52:00,55.0,47.0,30.15,SSE,162,0.0,4.0,74,0.00,,,0.00,,2013-03-05 13:52:00,
2013-03-05 09:02:00,57.0,48.0,30.15,SE,130,1.0,5.0,71,0.00,,,0.00,,2013-03-05 14:02:00,
2013-03-05 09:11:00,57.0,48.0,30.15,SE,130,1.0,5.0,71,0.00,,,0.00,,2013-03-05 14:11:00,
2013-03-05 09:22:00,59.0,49.0,30.15,SSW,196,2.0,5.0,69,0.00,,,0.00,,2013-03-05 14:22:00,
2013-03-05 09:32:00,61.0,51.0,30.16,SE,128,1.0,5.0,69,0.00,,,0.00,,2013-03-05 14:32:00,
2013-03-05 09:42:00,61.0,51.0,30.16,SE,128,1.0,5.0,69,0.00,,,0.00,,2013-03-05 14:42:00,
2013-03-05 09:52:00,62.0,52.0,30.15,SSE,166,2.0,5.0,70,0.00,,,0.00,,2013-03-05 14:52:00,
2013-03-05 10:02:00,64.0,54.0,30.15,SSW,198,1.0,8.0,70,0.00,,,0.00,,2013-03-05 15:02:00,
2013-03-05 10:11:00,64.0,54.0,30.15,SSW,198,1.0,8.0,70,0.00,,,0.00,,2013-03-05 15:11:00,
2013-03-05 10:21:00,65.0,55.0,30.15,SW,233,3.0,7.0,69,0.00,,,0.00,,2013-03-05 15:21:00,
2013-03-05 10:32:00,66.0,56.0,30.15,WSW,237,6.0,10.0,70,0.00,,,0.00,,2013-03-05 15:32:00,
2013-03-05 10:42:00,66.0,56.0,30.15,WSW,237,6.0,10.0,70,0.00,,,0.00,,2013-03-05 15:42:00,
2013-03-05 10:52:00,67.0,57.0,30.15,SSW,213,6.0,10.0,70,0.00,,,0.00,,2013-03-05 15:52:00,
2013-03-05 11:01:00,67.0,56.0,30.15,WSW,238,8.0,16.0,69,0.00,,,0.00,,2013-03-05 16:01:00,
2013-03-05 11:11:00,67.0,56.0,30.15,WSW,238,8.0,16.0,69,0.00,,,0.00,,2013-03-05 16:11:00,
2013-03-05 11:22:00,68.0,57.0,30.14,WSW,237,6.0,12.0,67,0.00,,,0.00,,2013-03-05 16:22:00,
2013-03-05 11:32:00,69.0,57.0,30.14,SSW,196,5.0,12.0,65,0.00,,,0.00,,2013-03-05 16:32:00,
2013-03-05 11:42:00,69.0,57.0,30.14,SSW,196,5.0,12.0,65,0.00,,,0.00,,2013-03-05 16:42:00,
2013-03-05 11:52:00,68.0,56.0,30.14,SSW,205,8.0,14.0,65,0.00,,,0.00,,2013-03-05 16:52:00,
2013-03-05 12:01:00,69.0,56.0,30.14,SW,214,5.0,12.0,63,0.00,,,0.00,,2013-03-05 17:01:00,
2013-03-05 12:11:00,69.0,56.0,30.14,SW,214,5.0,12.0,63,0.00,,,0.00,,2013-03-05 17:11:00,
2013-03-05 12:21:00,70.0,57.0,30.14,WSW,247,6.0,13.0,63,0.00,,,0.00,,2013-03-05 17:21:00,
2013-03-05 12:32:00,70.0,55.0,30.13,SSW,211,4.0,13.0,59,0.00,,,0.00,,2013-03-05 17:32:00,
2013-03-05 12:42:00,70.0,55.0,30.13,SSW,211,4.0,13.0,59,0.00,,,0.00,,2013-03-05 17:42:00,
2013-03-05 12:53:00,70.0,55.0,30.13,SSW,206,7.0,12.0,59,0.00,,,0.00,,2013-03-05 17:53:00,
2013-03-05 13:02:00,71.0,55.0,30.12,SW,229,6.0,12.0,58,0.00,,,0.00,,2013-03-05 18:02:00,
2013-03-05 13:11:00,71.0,55.0,30.12,SW,229,6.0,12.0,58,0.00,,,0.00,,2013-03-05 18:11:00,
2013-03-05 13:22:00,71.0,55.0,30.11,West,274,7.0,11.0,58,0.00,,,0.00,,2013-03-05 18:22:00,
2013-03-05 13:32:00,70.0,55.0,30.11,SSW,211,6.0,13.0,59,0.00,,,0.00,,2013-03-05 18:32:00,
2013-03-05 13:42:00,70.0,55.0,30.11,SSW,211,6.0,13.0,59,0.00,,,0.00,,2013-03-05 18:42:00,
2013-03-05 13:53:00,71.0,55.0,30.10,SW,227,5.0,9.0,58,0.00,,,0.00,,2013-03-05 18:53:00,
2013-03-05 14:01:00,71.0,55.0,30.10,WSW,242,7.0,11.0,57,0.00,,,0.00,,2013-03-05 19:01:00,
2013-03-05 14:11:00,71.0,55.0,30.10,WSW,242,7.0,11.0,57,0.00,,,0.00,,2013-03-05 19:11:00,
2013-03-05 14:21:00,71.0,57.0,30.09,SW,224,7.0,13.0,61,0.00,,,0.00,,2013-03-05 19:21:00,
2013-03-05 14:32:00,71.0,56.0,30.08,WSW,257,6.0,14.0,60,0.00,,,0.00,,2013-03-05 19:32:00,
2013-03-05 14:42:00,71.0,56.0,30.08,WSW,257,6.0,14.0,60,0.00,,,0.00,,2013-03-05 19:42:00,
2013-03-05 14:52:00,71.0,56.0,30.08,SSW,204,7.0,11.0,60,0.00,,,0.00,,2013-03-05 19:52:00,
2013-03-05 15:01:00,71.0,56.0,30.08,SW,229,5.0,9.0,60,0.00,,,0.00,,2013-03-05 20:01:00,
2013-03-05 15:11:00,72.0,57.0,30.08,SW,223,5.0,11.0,60,0.00,,,0.00,,2013-03-05 20:11:00,
2013-03-05 15:22:00,72.0,57.0,30.08,SW,223,5.0,11.0,60,0.00,,,0.00,,2013-03-05 20:22:00,
2013-03-05 15:32:00,71.0,57.0,30.08,SSW,211,7.0,12.0,61,0.00,,,0.00,,2013-03-05 20:32:00,
2013-03-05 15:42:00,71.0,57.0,30.08,SSW,211,7.0,12.0,61,0.00,,,0.00,,2013-03-05 20:42:00,
2013-03-05 15:52:00,71.0,57.0,30.08,WSW,246,7.0,12.0,62,0.00,,,0.00,,2013-03-05 20:52:00,
2013-03-05 16:02:00,71.0,58.0,30.08,SW,236,6.0,11.0,63,0.00,,,0.00,,2013-03-05 21:02:00,
2013-03-05 16:11:00,71.0,58.0,30.08,SW,236,6.0,11.0,63,0.00,,,0.00,,2013-03-05 21:11:00,
2013-03-05 16:22:00,72.0,59.0,30.09,SW,225,4.0,10.0,64,0.00,,,0.00,,2013-03-05 21:22:00,
2013-03-05 16:32:00,71.0,59.0,30.09,SW,224,5.0,12.0,65,0.00,,,0.00,,2013-03-05 21:32:00,
2013-03-05 16:42:00,71.0,59.0,30.09,SW,224,5.0,12.0,65,0.00,,,0.00,,2013-03-05 21:42:00,
2013-03-05 16:52:00,71.0,59.0,30.08,SW,214,4.0,9.0,66,0.00,,,0.00,,2013-03-05 21:52:00,
2013-03-05 17:01:00,71.0,59.0,30.08,SW,219,6.0,10.0,66,0.00,,,0.00,,2013-03-05 22:01:00,
2013-03-05 17:11:00,71.0,59.0,30.08,SW,219,6.0,10.0,66,0.00,,,0.00,,2013-03-05 22:11:00,
2013-03-05 17:22:00,70.0,59.0,30.08,SW,217,7.0,12.0,68,0.00,,,0.00,,2013-03-05 22:22:00,
2013-03-05 17:32:00,70.0,59.0,30.08,WSW,244,5.0,8.0,68,0.00,,,0.00,,2013-03-05 22:32:00,
2013-03-05 17:42:00,70.0,59.0,30.08,WSW,244,5.0,8.0,68,0.00,,,0.00,,2013-03-05 22:42:00,
2013-03-05 17:52:00,70.0,59.0,30.08,WSW,252,5.0,10.0,69,0.00,,,0.00,,2013-03-05 22:52:00,
2013-03-05 18:01:00,69.0,58.0,30.08,SW,230,5.0,9.0,69,0.00,,,0.00,,2013-03-05 23:01:00,
2013-03-05 18:11:00,69.0,58.0,30.08,SW,230,5.0,9.0,69,0.00,,,0.00,,2013-03-05 23:11:00,
2013-03-05 18:21:00,69.0,59.0,30.08,SSW,192,4.0,8.0,71,0.00,,,0.00,,2013-03-05 23:21:00,
2013-03-05 18:32:00,68.0,59.0,30.08,SW,227,3.0,6.0,73,0.00,,,0.00,,2013-03-05 23:32:00,
2013-03-05 18:42:00,68.0,59.0,30.08,SW,227,3.0,6.0,73,0.00,,,0.00,,2013-03-05 23:42:00,
2013-03-05 18:53:00,67.0,59.0,30.07,SW,222,1.0,7.0,75,0.00,,,0.00,,2013-03-05 23:53:00,
2013-03-05 19:01:00,67.0,60.0,30.07,SW,223,0.0,4.0,77,0.00,,,0.00,,2013-03-06 00:01:00,
2013-03-05 19:11:00,67.0,60.0,30.07,SW,223,0.0,4.0,77,0.00,,,0.00,,2013-03-06 00:11:00,
2013-03-05 19:21:00,66.0,59.0,30.07,SSW,194,0.0,1.0,78,0.00,,,0.00,,2013-03-06 00:21:00,
2013-03-05 19:32:00,66.0,59.0,30.07,SSW,196,0.0,2.0,79,0.00,,,0.00,,2013-03-06 00:32:00,
2013-03-05 19:42:00,66.0,59.0,30.07,SSW,196,0.0,2.0,79,0.00,,,0.00,,2013-03-06 00:42:00,
2013-03-05 19:52:00,65.0,59.0,30.07,SSW,193,0.0,1.0,81,0.00,,,0.00,,2013-03-06 00:52:00,
2013-03-05 20:02:00,64.0,58.0,30.06,SSW,193,1.0,3.0,82,0.00,,,0.00,,2013-03-06 01:02:00,
2013-03-05 20:11:00,64.0,58.0,30.06,SSW,193,1.0,3.0,82,0.00,,,0.00,,2013-03-06 01:11:00,
2013-03-05 20:21:00,64.0,59.0,30.06,SSW,193,0.0,0.0,83,0.00,,,0.00,,2013-03-06 01:21:00,
2013-03-05 20:32:00,64.0,59.0,30.06,SSW,193,1.0,3.0,84,0.00,,,0.00,,2013-03-06 01:32:00,
2013-03-05 20:42:00,64.0,59.0,30.06,SSW,193,1.0,3.0,84,0.00,,,0.00,,2013-03-06 01:42:00,
2013-03-05 20:52:00,63.0,59.0,30.06,SSW,193,0.0,2.0,86,0.00,,,0.00,,2013-03-06 01:52:00,
2013-03-05 21:01:00,63.0,59.0,30.06,SSW,193,1.0,3.0,87,0.00,,,0.00,,2013-03-06 02:01:00,
2013-03-05 21:11:00,63.0,59.0,30.06,SSW,193,1.0,3.0,87,0.00,,,0.00,,2013-03-06 02:11:00,
2013-03-05 21:22:00,63.0,59.0,30.05,SE,136,1.0,3.0,88,0.00,,,0.00,,2013-03-06 02:22:00,
2013-03-05 21:32:00,63.0,60.0,30.05,SSE,155,1.0,4.0,89,0.00,,,0.00,,2013-03-06 02:32:00,
2013-03-05 21:42:00,63.0,60.0,30.05,SSE,155,1.0,4.0,89,0.00,,,0.00,,2013-03-06 02:42:00,
2013-03-05 21:52:00,63.0,60.0,30.05,South,183,1.0,3.0,89,0.00,,,0.00,,2013-03-06 02:52:00,
2013-03-05 22:02:00,63.0,60.0,30.04,SW,221,3.0,8.0,90,0.00,,,0.00,,2013-03-06 03:02:00,
2013-03-05 22:11:00,63.0,60.0,30.04,SW,221,3.0,8.0,90,0.00,,,0.00,,2013-03-06 03:11:00,
2013-03-05 22:22:00,63.0,60.0,30.04,South,186,2.0,7.0,90,0.00,,,0.00,,2013-03-06 03:22:00,
2013-03-05 22:32:00,64.0,61.0,30.04,SSW,194,3.0,8.0,90,0.00,,,0.00,,2013-03-06 03:32:00,
2013-03-05 22:42:00,64.0,61.0,30.04,SSW,194,3.0,8.0,90,0.00,,,0.00,,2013-03-06 03:42:00,
2013-03-05 22:53:00,64.0,61.0,30.04,SSE,164,4.0,7.0,89,0.00,,,0.00,,2013-03-06 03:53:00,
2013-03-05 23:02:00,64.0,61.0,30.04,SW,218,2.0,6.0,89,0.00,,,0.00,,2013-03-06 04:02:00,
2013-03-05 23:11:00,64.0,61.0,30.04,SW,218,2.0,6.0,89,0.00,,,0.00,,2013-03-06 04:11:00,
2013-03-05 23:22:00,64.0,61.0,30.04,South,174,3.0,7.0,89,0.00,,,0.00,,2013-03-06 04:22:00,
2013-03-05 23:32:00,65.0,62.0,30.03,South,171,3.0,8.0,89,0.00,,,0.00,,2013-03-06 04:32:00,
2013-03-05 23:42:00,65.0,62.0,30.03,South,171,3.0,8.0,89,0.00,,,0.00,,2013-03-06 04:42:00,
2013-03-05 23:52:00,65.0,62.0,30.03,SW,219,4.0,7.0,90,0.00,,,0.00,,2013-03-06 04:52:00,